Regional Weather Roundup
Issued by NWS Sterling, VA

Home | Current Version | Previous Version | Graphics & Text | Print | Product List | Glossary On
Versions: 1 2 3 4 5 6 7 8 9 10 11 12 13 14 15 16 17 18 19 20 21 22 23 24 25 26 27
000
ASUS41 KLWX 291410
RWRLWX

REGIONAL WEATHER ROUNDUP
NATIONAL WEATHER SERVICE BALTIMORE MD/WASHINGTON DC
1000 AM EDT FRI JUL 29 2016

Note: "FAIR" indicates few or no clouds below 12,000 feet
with no significant weather and/or obstructions to visibility.
 TC=TEMPERATURE CELSIUS

 * =Non NWS site. Station does not report precipitation (e.g. rain,
    snow, etc.), thunder, or fog.

DCZ001-MDZ009-015-VAZ040>042-051-053>054-291500-
WASHINGTON METRO

CITY           SKY/WX    TMP DP  RH WIND       PRES   REMARKS
WASHINGTON NAT PTSUNNY   80  71  74 N9        29.89R
DULLES         PTSUNNY   76  69  79 N9        29.90S
ANDREWS AFB    PTSUNNY   77  70  80 N12       29.88R
FT BELVOIR     PTSUNNY   78  71  79 VRB6      29.88S
QUANTICO       PTSUNNY   80  71  74 N9        29.89S
LEESBURG*      FAIR      79  73  83 NW10      29.92R
MANASSAS*      CLOUDY    77  72  83 N8        29.90S
GAITHERSBURG*  PTSUNNY   75  70  83 NW5       29.94R

$$

MDZ006>007-011-014-291500-
BALTIMORE METRO

CITY           SKY/WX    TMP DP  RH WIND       PRES   REMARKS
BWI AIRPORT    MOSUNNY   79  69  71 NW7       29.87S
MD SCIENCE CTR   N/A     79  68  69 MISG      29.89S
MARTIN STATE   PTSUNNY   79  75  89 NW7       29.87S
ANNAPOLIS      MOSUNNY   78  71  79 N9        29.86S
FORT MEADE*    PTSUNNY   77  70  78 N3        29.90S

$$

MDZ012-015-019>023-291500-
MARYLAND EASTERN SHORE

CITY           SKY/WX    TMP DP  RH WIND       PRES   REMARKS
OCEAN CITY       N/A    N/A N/A N/A MISG      29.82R
SALISBURY      CLOUDY    79  73  83 MISG      29.83R
BAY BRIDGE AP* PTSUNNY   77  72  83 N10       29.86S
CAMBRIDGE*     CLOUDY    73  70  88 N9        29.84S
EASTON*        PTSUNNY   77  75  94 NE10      29.88S

$$

MDZ017>025-291500-
SOUTHERN MARYLAND

CITY           SKY/WX    TMP DP  RH WIND       PRES   REMARKS
PATUXENT RIVER LGT RAIN  77  72  84 N12       29.85R
ST INIGOES     CLOUDY    78  74  87 VRB5      29.85R
LEONARDTOWN*     N/A     73  70  88 MISG        N/A

$$

MDZ003>005-291500-
NORTH CENTRAL MARYLAND

CITY           SKY/WX    TMP DP  RH WIND       PRES   REMARKS
FREDERICK*     MOSUNNY   79  70  73 CALM      29.92S
HAGERSTOWN APT SUNNY     78  67  68 NW7       29.91S

$$

MDZ501>502-291500-
WESTERN MARYLAND

CITY           SKY/WX    TMP DP  RH WIND       PRES   REMARKS
OAKLAND*       CLOUDY    63  63 100 N3        30.05R
CUMBERLAND*    MOSUNNY   77  70  78 N7        29.97F

$$

VAZ025>031-291500-
SHENANDOAH VALLEY

CITY           SKY/WX    TMP DP  RH WIND       PRES   REMARKS
WINCHESTER*    CLOUDY    73  68  83 CALM      29.93S
FRONT ROYAL*   CLOUDY    73  70  88 CALM      29.93S
LURAY*         NOT AVBL
NEW MARKET*    CLOUDY   N/A N/A N/A CALM      29.93S
STAUNTON*      FAIR      74  68  79 CALM      29.97S
WAYNESBORO*    PTSUNNY   74  67  80 CALM      29.97S

$$

WVZ021-048>050-054>055-291500-
EASTERN WEST VIRGINIA PANHANDLE

CITY           SKY/WX    TMP DP  RH WIND       PRES   REMARKS
MARTINSBURG    FAIR      77  68  73 N8        29.91S
PETERSBURG*    DRIZZLE   73  70  92 CALM      29.96S

$$

VAZ036>039-050-291500-
CENTRAL FOOTHILLS

CITY           SKY/WX    TMP DP  RH WIND       PRES   REMARKS
CHARLOTTESVILL PTSUNNY   80  67  64 N7        29.92R
CULPEPER*      CLOUDY    77  71  80 N10       29.92S
ORANGE*          N/A     77  73  88 CALM      29.94R
GORDONSVILLE*  CLOUDY    77  72  86 NE7       29.92R
WARRENTON*     CLOUDY    78  67  68 NW10      29.90S

$$

VAZ055>057-291500-
NORTH AND CENTRAL PIEDMONT

CITY           SKY/WX    TMP DP  RH WIND       PRES   REMARKS
FREDERICKSBRG* FAIR      77  74  90 N9        29.88S
STAFFORD*      CLOUDY    77  71  81 N9        29.94R

$$

NCZ024-NYZ072-PAZ021-071-VAZ022-071-291500-
OTHER REGIONAL OBSERVATIONS

CITY           SKY/WX    TMP DP  RH WIND       PRES   REMARKS
NEW YORK CITY  CLOUDY    70  67  90 VRB7      29.88F FOG
PHILADELPHIA   PTSUNNY   77  71  82 N12       29.84F
PITTSBURGH     CLOUDY    68  66  93 VRB3      29.97S
ROANOKE        FAIR      79  67  66 W8        29.98S
RICHMOND       PTSUNNY   77  71  82 N12       29.89R
RALEIGH        MOSUNNY   84  69  60 NW9       29.92R

$$

ANZ530>537-291500-
MARINE OBSERVATIONS

STATION/POSITION TIME  TEMP    WIND        PRES
                       AIR SEA DIR/SP/G
                 (UTC) (F)     (DEG/KT/KT) (MB)
THOMAS PT LIGHT  1400   75 83  350/ 11/ 13 1012.6R
BALT KEY BRIDGE  1342   76     340/  5/  7 1011.1F
COVE POINT       1342   77      20/ 13/ 20 1011.2R
LEWISETTA        1342   77 86  360/ 10/ 13 1010.7R
SOLOMONS ISLAND  1342   77 85  340/  8/ 11   N/A
PINEY POINT      1336          360/ 11/ 15   N/A

$$





USA.gov is the U.S. government's official web portal to all federal, state and local government web resources and services.